Miscellaneous Local Product
Issued by NWS North Platte, NE

Home | Current Version | Previous Version | Text Only | Print | Product List | Glossary On
Versions: 1 2 3 4 5 6 7 8 9 10 11 12 13 14 15 16 17 18 19 20 21 22 23 24 25 26 27 28 29 30 31 32 33 34 35 36 37 38 39 40 41 42 43 44 45 46 47 48 49 50
000
AXUS43 KLBF 021210
MISLBF


WESTERN AND NORTH CENTRAL NEBRASKA HOURLY WEATHER ROUNDUP
NATIONAL WEATHER SERVICE NORTH PLATTE NE
700 AM CDT WED SEP 02 2015

NOTE: "FAIR" INDICATES FEW OR NO CLOUDS BELOW 12,000 FEET WITH NO
SIGNIFICANT WEATHER AND/OR OBSTRUCTIONS TO VISIBILITY.

NOTE: STATIONS NOT REPORTING VARIABLES SUCH AS SKY/WEATHER OR
PRESSURE ARE PROVIDED BY THE NEBRASKA DEPARTMENT OF
ROADS...RAWS...AND APRS NETWORKS...AND ARE NOT UNDER
NATIONAL WEATHER SERVICE QUALITY CONTROL.

...OBSERVATIONS IN AND NEAR THE EASTERN PANHANDLE OF NEBRASKA...

CITY           SKY/WX    TMP DP  RH WIND       PRES   REMARKS
PINE RIDGE     PTCLDY    59  46  62 W3        29.89R
CHADRON        MOCLDY    59  45  59 SW6       29.90R
ALLIANCE       PTCLDY    52  46  80 W7        29.95S
SIDNEY         PTCLDY    57  42  57 W10       30.00R
CRESCENT LAKE    N/A     63  42  47 NW6         N/A
BIG SPRINGS      N/A     57  53  85 CALM        N/A
$$

...OBSERVATIONS IN NORTH CENTRAL NEBRASKA...

CITY           SKY/WX    TMP DP  RH WIND       PRES   REMARKS
VALENTINE      CLEAR     56  54  93 SW5       29.84F
THEDFORD       CLEAR     61  58  90 W5        29.89R
AINSWORTH      CLEAR     64  60  88 S5        29.85S
O`NEILL        CLEAR     64  63  96 S5        29.85S
ORD            CLEAR     60  58  92 CALM      29.86R
BROKEN BOW     CLEAR     62  59  90 CALM      29.88S
SPRINGVIEW       N/A     58  56  95 CALM        N/A
SARGENT          N/A     61  59  94 CALM        N/A
CHAMBERS         N/A     65  62  89 S3          N/A
EWING            N/A     66  59  78 CALM        N/A
$$

...OBSERVATIONS IN SOUTHWEST NEBRASKA AND FAR NORTHEAST COLORADO...

CITY           SKY/WX    TMP DP  RH WIND       PRES   REMARKS
WRAY           CLOUDY    58  53  83 SW3       29.96S
HOLYOKE        FAIR      61  52  72 W6        29.95S
IMPERIAL       CLEAR     62  55  77 SW3       29.93R
OGALLALA       CLEAR     57  53  86 W3        29.93S
NORTH PLATTE   CLEAR     60  57  89 CALM      29.90S
MCCOOK         CLEAR     62  57  83 W7        29.90S
LEXINGTON      CLEAR     60  58  93 CALM      29.89F
PAXTON           N/A     57  54  89 CALM        N/A
BRADY            N/A     60  57  91 CALM        N/A
CALLAWAY         N/A     60  59  96 SE3         N/A
$$

...OBSERVATIONS IN CENTRAL LINCOLN COUNTY AREA...

CITY           SKY/WX    TMP DP  RH WIND       PRES   REMARKS
N.P. AIRPORT   CLEAR     60  57  89 CALM      29.90S
N.P. DOWNTOWN    N/A     63  60  88 CALM        N/A
N.P. SOUTHEAST   N/A     62  58  88 CALM        N/A
N.P. HILLCREST   N/A     68  61  77 CALM        N/A
$$

...SOME OBSERVATIONS FROM AROUND THE REGION...

CITY           SKY/WX    TMP DP  RH WIND       PRES   REMARKS
DENVER         MOCLDY    64  44  48 SW8       30.08R
LARAMIE        CLEAR     51  40  65 S9        30.22F
CHEYENNE       PTCLDY    65  40  39 W14       30.11S
SCOTTSBLUFF    MOCLDY    56  51  84 NW7       29.97S
RAPID CITY     MOCLDY    58  48  69 NW6       29.84F
PIERRE         FOG       59  59 100 CALM      29.77R VSB 1/4
WINNER         FAIR      67  59  75 SE3       29.81R
SIOUX FALLS    CLEAR     68  65  90 SE7       29.86S FOG
OMAHA          PTCLDY    73  68  84 SE14      29.91R
GRAND ISLAND   CLEAR     66  62  87 S7        29.89R
KANSAS CITY    CLOUDY    73  65  75 S7        30.01R
WICHITA        MOCLDY    71  63  75 S10       29.99S
HAYS           CLEAR     72  55  56 S15       29.93R
LIBERAL        PTCLDY    73  54  49 S15       29.99F
GOODLAND       CLEAR     62  56  80 SW7       29.97S
$$



USA.gov is the U.S. government's official web portal to all federal, state and local government web resources and services.